Vertical_Velocity
2 2 1 0 -0 -1 -1 -4 -1 0 -1 -2 -2 -2 -2 -1 1 0 -2 -3 -3 -2 -3 -1 1 1 1 1 4 2 -2 -0 -3 0 -3 2 -1 2 2 -1 1 -0 -0 -0 -1
-0 -1 -2 -3 -2 -1 -1 0 -0 -2 -1 0 1 2 1 -2 -2 0 2 1 2 1 3 -2 -2 0 1 0 2 -3 -1 -4 -2 -0 -1 -1 -1 -4 -0 0 0 1 -1 0 0
-2 -0 1 -0 0 0 1 3 3 1 0 -2 -0 0 -1 -0 -1 -3 -3 -2 -2 -2 -1 3 3 -3 -1 2 -0 0 -3 -2 -1 -1 0 -1 0 2 -2 0 -6 -13 -4 0 -0
2 1 -0 1 -0 1 1 0 2 3 3 2 1 -2 0 1 -6 -0 0 -1 0 0 2 1 3 2 1 0 0 0 -0 -0 0 -0 0 -0 1 0 -0 -6 -1 -2 3 0 -3
2 1 0 1 1 1 -0 -0 1 1 1 0 -0 3 3 1 -7 4 1 1 0 2 2 2 -0 -1 -0 0 1 2 -1 -0 -2 -2 -1 1 -1 -5 -4 -0 1 1 3 1 3
-2 -1 -2 -1 -1 -0 1 0 1 2 -1 1 1 1 3 -2 -1 0 -1 -2 0 -0 -0 0 2 3 -1 -1 -0 -1 0 -1 1 -1 -0 1 -1 2 -3 4 2 1 -2 0 -1
-1 -1 -1 -1 -1 -2 -1 -1 -1 1 2 -1 1 2 3 -10 1 -0 -2 0 3 1 0 2 2 1 2 -0 1 1 -0 -1 0 -1 -1 -2 1 -5 1 1 -0 -0 2 3 0
-3 -3 -2 -1 -2 -2 -2 -1 -2 1 -1 3 0 2 -7 -1 1 -1 -1 1 -0 -1 -1 2 2 1 1 1 -1 0 -0 -0 -2 0 -0 -2 -8 -1 2 -2 -1 1 -0 0 -1
-2 -2 -3 -2 -4 -2 -5 -1 -3 -1 -1 0 4 0 -5 1 -0 -1 -1 -1 -1 -1 1 2 2 1 1 -1 -3 -0 -1 1 -5 -1 -1 -1 -4 -1 2 4 1 0 -0 0 2
-4 -4 -4 -2 -4 -6 -6 -4 -3 -5 3 1 1 3 1 -1 -1 -1 0 1 1 1 0 1 1 -0 -1 -1 -6 -3 1 -0 -1 -2 2 1 -6 -3 -1 1 -4 -1 1 1 -0
-1 -5 -3 -0 -2 -2 -9 -16 -18 -2 3 -4 4 6 -3 -0 1 2 0 -0 0 2 -1 1 -3 -3 -6 -2 0 0 1 0 -2 -0 1 -2 -1 -4 -2 5 1 -1 -1 -0 -0
0 1 2 -3 -3 1 -0 -5 2 -0 -15 -5 1 -0 4 -0 0 -0 -2 0 1 -1 1 -4 -4 -5 -1 0 1 1 1 -5 -3 -0 3 -1 -6 -4 -0 -6 -7 -3 -0 -0 6
-3 -2 -4 -6 1 3 -1 -0 -1 1 1 -5 -0 1 1 1 -1 -0 1 0 -1 1 -0 -3 -3 -0 -0 1 2 -1 -1 -1 -3 -1 -0 1 -3 1 -4 2 3 0 5 5 1
-0 2 -4 -8 -0 -0 2 6 4 4 -1 -11 1 1 -0 0 -0 0 1 -1 1 -3 -0 -3 -2 -1 1 -0 -2 2 -1 -0 0 -1 -3 -1 -14 1 -1 -3 1 -1 0 1 -1
-2 -4 3 11 -1 -2 -1 -0 0 -1 -4 -11 1 3 1 0 1 0 1 1 -1 -1 -5 -19 0 1 1 -6 -1 -6 -1 -0 -0 -0 -1 1 -0 -10 -0 -3 -2 -1 2 3 2
-7 1 -4 2 4 5 2 3 3 -11 -17 -0 0 -0 -2 -0 -0 -0 -0 -0 0 0 0 -2 -0 -0 -3 1 0 -0 -1 -1 -1 -1 -2 -5 -5 -9 -3 -5 -2 -1 2 1 -2
-2 -0 -4 1 2 -1 -1 1 -11 -4 -14 -1 1 0 0 -1 0 1 -0 -0 -2 -0 -1 -0 -1 0 -2 -1 -3 -0 -1 -2 -1 -3 -6 0 -2 -15 -3 0 -0 -0 1 5 5
-6 -10 3 -3 -2 -3 1 -4 2 -5 -1 -1 -0 -0 0 1 -1 1 0 -1 -0 1 0 -0 -5 -1 -1 -3 -4 -2 -1 -4 -3 -2 -4 -1 -5 -21 -0 -1 0 1 0 1 1
-0 -7 -3 0 1 -4 1 -2 -6 -0 2 0 -8 -0 -1 -0 1 -0 0 -0 2 0 1 -0 -2 -1 -1 0 -2 1 2 -1 -2 -0 1 -5 -8 -7 -0 -1 -0 1 1 1 -0
-16 -2 1 -0 -3 -1 -2 -4 -2 1 -0 -3 1 3 1 -1 -1 -1 -1 1 1 -0 -1 -1 -1 0 -1 -2 1 -6 1 -1 -1 1 0 -4 -1 -7 -3 -1 -1 -1 1 1 1
-12 -8 5 4 -2 0 -1 -4 -1 2 -1 1 0 -0 1 1 1 -1 -3 -0 -0 0 -0 -0 1 -0 -3 -1 -4 2 2 -1 2 1 1 -0 -11 -4 -2 -0 -0 -1 -2 1 -0
-6 -5 -6 -4 -9 1 -0 1 4 -0 2 -1 -0 1 1 0 0 1 -1 1 -1 -0 0 -2 -2 -0 -5 3 1 -1 -1 -2 -1 -2 -1 -1 -17 0 -0 -0 1 -2 -0 -1 1
-2 -5 2 1 -2 -1 -4 -2 3 -3 0 -3 0 1 -0 1 -0 2 -0 -3 -1 -0 -4 -3 -2 -2 1 -0 1 0 -0 -1 -0 0 -3 2 -16 0 -0 0 -1 -1 -1 -2 -1
1 -2 -2 3 -3 -0 1 -1 -3 -2 -1 1 -1 1 1 0 -0 -3 -1 -3 1 -1 1 3 0 -4 -4 -3 -0 1 1 0 -3 1 -3 -6 -11 -10 -1 -1 -0 -1 -1 3 1
1 -3 7 -3 -6 -0 1 2 -1 -2 1 1 -1 1 3 1 -0 -0 -1 -4 -3 1 2 -0 1 1 -2 -1 2 -0 0 -1 1 -8 5 -17 2 -9 -1 -0 -3 -2 0 -1 -0
1 1 -2 -4 -0 0 -2 -3 3 -5 4 -6 3 -1 1 3 3 -2 4 0 -2 -0 0 -1 -2 1 -2 -1 2 1 -1 0 -0 -2 1 2 -11 1 -6 1 -1 -1 2 0 -1
-1 -0 2 -4 -0 2 -3 -2 -1 3 -12 1 7 6 1 -5 3 -3 1 -1 0 1 -0 1 0 1 -3 -0 -1 -1 -7 -1 -1 -0 -4 -2 -10 0 -2 -0 0 -0 1 1 -0
Height
1540 1537 1533 1529 1525 1521 1518 1515 1512 1510 1507 1505 1504 1501 1499 1497 1495 1492 1490 1490 1489 1488 1488 1488 1489 1489 1491 1492 1492 1491 1499 1502 1489 1484 1480 1481 1483 1486 1488 1488 1490 1490 1490 1491 1492
1540 1537 1533 1529 1525 1521 1518 1515 1512 1509 1506 1503 1500 1498 1496 1493 1490 1487 1487 1486 1486 1486 1486 1486 1487 1488 1490 1490 1490 1490 1499 1490 1481 1481 1480 1479 1479 1481 1486 1488 1488 1486 1487 1489 1491
1541 1537 1533 1529 1525 1521 1518 1514 1511 1507 1504 1501 1499 1496 1494 1491 1487 1482 1483 1484 1484 1484 1484 1484 1484 1485 1488 1488 1487 1487 1489 1480 1478 1479 1479 1479 1481 1480 1481 1485 1475 1475 1480 1484 1487
1540 1536 1532 1528 1525 1521 1517 1513 1508 1504 1500 1497 1495 1492 1491 1490 1492 1481 1481 1481 1481 1481 1482 1482 1483 1482 1482 1482 1479 1484 1478 1478 1477 1477 1479 1478 1476 1475 1474 1467 1468 1472 1475 1478 1481
1540 1535 1531 1527 1523 1519 1515 1511 1506 1501 1497 1494 1490 1488 1488 1486 1481 1479 1479 1479 1479 1479 1479 1480 1480 1481 1481 1479 1479 1477 1475 1476 1476 1477 1477 1477 1475 1475 1466 1468 1469 1471 1473 1474 1478
1539 1534 1530 1525 1521 1517 1512 1508 1503 1499 1494 1490 1487 1486 1485 1484 1477 1477 1477 1477 1477 1477 1478 1478 1479 1478 1477 1476 1477 1475 1475 1473 1473 1473 1474 1474 1474 1474 1460 1463 1467 1467 1469 1472 1474
1538 1533 1529 1524 1519 1515 1510 1506 1501 1496 1492 1487 1485 1483 1480 1477 1473 1474 1474 1475 1475 1475 1476 1476 1477 1477 1477 1476 1474 1473 1474 1472 1468 1468 1470 1472 1473 1461 1456 1458 1461 1464 1466 1468 1470
1535 1531 1526 1521 1516 1511 1507 1502 1497 1492 1488 1485 1481 1479 1475 1472 1471 1472 1472 1472 1472 1473 1474 1474 1474 1475 1475 1475 1475 1476 1475 1477 1464 1466 1468 1471 1463 1451 1452 1454 1457 1460 1462 1463 1465
1534 1529 1524 1519 1513 1508 1503 1498 1493 1489 1485 1482 1480 1478 1472 1469 1469 1470 1471 1470 1470 1471 1472 1472 1474 1474 1475 1477 1481 1479 1478 1477 1465 1462 1464 1467 1458 1452 1452 1453 1454 1454 1456 1458 1462
1531 1526 1521 1516 1510 1505 1499 1495 1489 1485 1482 1480 1477 1478 1471 1468 1468 1468 1468 1468 1468 1469 1471 1473 1474 1476 1477 1479 1483 1476 1480 1471 1465 1462 1464 1465 1455 1450 1452 1452 1449 1450 1450 1450 1452
1529 1523 1517 1512 1507 1501 1496 1491 1489 1485 1480 1476 1470 1466 1467 1467 1466 1465 1465 1467 1468 1469 1470 1472 1476 1476 1466 1468 1466 1465 1467 1467 1459 1457 1462 1457 1447 1444 1446 1449 1447 1443 1441 1441 1443
1525 1519 1513 1509 1504 1499 1497 1492 1494 1493 1473 1463 1460 1461 1461 1463 1464 1462 1465 1467 1467 1469 1468 1474 1475 1459 1460 1462 1465 1466 1467 1464 1458 1458 1462 1454 1445 1441 1438 1434 1426 1426 1428 1429 1438
1522 1516 1510 1505 1501 1498 1495 1493 1491 1488 1484 1460 1458 1458 1459 1461 1460 1461 1462 1462 1464 1468 1470 1472 1458 1458 1460 1462 1463 1461 1463 1459 1457 1459 1458 1458 1437 1433 1420 1418 1418 1413 1416 1424 1428
1519 1514 1508 1502 1501 1496 1493 1492 1489 1486 1486 1462 1459 1459 1459 1458 1460 1460 1459 1461 1463 1463 1463 1464 1457 1458 1461 1461 1462 1464 1457 1458 1459 1460 1463 1456 1433 1419 1413 1409 1404 1407 1412 1415 1423
1516 1510 1505 1502 1496 1494 1493 1490 1488 1488 1497 1460 1460 1460 1459 1462 1461 1459 1460 1460 1457 1457 1462 1454 1458 1459 1460 1457 1456 1455 1459 1460 1462 1466 1474 1461 1467 1422 1418 1409 1404 1408 1410 1415 1420
1514 1508 1502 1499 1495 1493 1490 1488 1488 1493 1493 1459 1460 1460 1460 1460 1460 1460 1461 1461 1460 1459 1457 1456 1456 1456 1454 1459 1458 1459 1460 1464 1471 1473 1485 1449 1449 1436 1430 1421 1414 1414 1413 1416 1421
1509 1504 1500 1494 1492 1491 1490 1488 1496 1495 1457 1459 1458 1459 1458 1457 1457 1460 1461 1462 1461 1456 1457 1454 1453 1454 1455 1458 1460 1460 1460 1460 1464 1484 1442 1451 1462 1435 1416 1422 1424 1421 1418 1419 1424
1503 1499 1495 1492 1491 1491 1491 1491 1490 1471 1465 1459 1459 1456 1457 1453 1454 1457 1458 1459 1453 1454 1457 1451 1440 1453 1452 1452 1453 1463 1456 1445 1434 1449 1450 1460 1455 1418 1423 1422 1420 1417 1418 1421 1424
1497 1492 1490 1491 1491 1490 1492 1500 1488 1477 1471 1469 1463 1459 1456 1457 1459 1458 1459 1458 1462 1457 1456 1452 1445 1453 1455 1456 1455 1456 1460 1451 1452 1460 1455 1438 1423 1415 1421 1422 1420 1418 1417 1418 1422
1494 1488 1488 1489 1489 1490 1493 1487 1482 1474 1473 1471 1472 1465 1466 1464 1463 1458 1453 1460 1463 1464 1460 1465 1464 1460 1457 1455 1460 1460 1466 1457 1461 1446 1438 1449 1445 1427 1419 1422 1426 1423 1419 1418 1419
1498 1491 1491 1491 1490 1492 1493 1489 1481 1477 1476 1477 1474 1470 1468 1466 1462 1461 1452 1459 1463 1463 1461 1464 1464 1459 1457 1457 1451 1459 1459 1470 1468 1460 1446 1447 1444 1428 1421 1425 1424 1423 1422 1420 1421
1499 1499 1493 1492 1493 1493 1495 1488 1484 1479 1477 1476 1475 1475 1471 1468 1467 1463 1457 1455 1459 1459 1461 1460 1463 1458 1452 1460 1458 1458 1460 1462 1453 1453 1453 1451 1428 1422 1425 1425 1424 1422 1421 1423 1424
1503 1498 1493 1491 1494 1496 1492 1491 1488 1485 1484 1484 1477 1477 1476 1474 1472 1460 1459 1454 1455 1457 1458 1461 1462 1459 1448 1462 1461 1457 1458 1453 1450 1450 1443 1442 1426 1426 1427 1424 1423 1422 1420 1419 1419
1507 1504 1496 1494 1496 1497 1494 1489 1487 1485 1480 1480 1478 1478 1477 1473 1471 1463 1461 1453 1452 1452 1453 1455 1457 1449 1441 1438 1435 1446 1445 1445 1448 1449 1435 1430 1414 1410 1420 1420 1420 1418 1415 1416 1417
1509 1505 1502 1501 1498 1500 1499 1493 1488 1486 1480 1479 1476 1476 1477 1469 1468 1463 1460 1459 1457 1452 1451 1452 1452 1447 1440 1436 1435 1435 1435 1434 1438 1432 1436 1419 1420 1410 1411 1417 1415 1413 1413 1414 1415
1511 1509 1504 1501 1499 1500 1496 1492 1487 1485 1487 1483 1479 1476 1478 1474 1471 1463 1463 1461 1454 1454 1454 1451 1446 1445 1443 1435 1434 1436 1431 1427 1428 1426 1428 1424 1421 1410 1413 1412 1412 1410 1410 1412 1412
1507 1505 1504 1498 1497 1498 1497 1491 1488 1487 1480 1479 1477 1474 1473 1468 1465 1461 1458 1454 1451 1447 1449 1450 1448 1446 1438 1431 1434 1437 1426 1420 1424 1421 1420 1428 1416 1415 1413 1412 1412 1410 1411 1411 1413